This is the latest recevied weather packets stored in our database for station/object K1FSY-9. If no packets are shown the sender has not sent any weather packets the latest 10 day(s).
| Time | Temp. | Humidity | Pressure | Rain* | Wind** | Luminosity | Snow |
|---|---|---|---|---|---|---|---|
| 1777240961 | 16.11° C | 47% | 1016.2 hPa | 2.54 mm | - | - | - |
| 1777239160 | 16.67° C | 46% | 1016.2 hPa | 2.54 mm | - | - | - |
| 1777237357 | 17.78° C | 45% | 1015.9 hPa | 2.54 mm | - | - | - |
| 1777235555 | 16.67° C | 48% | 1015.9 hPa | 2.54 mm | - | - | - |
| 1777233753 | 16.67° C | 44% | 1015.9 hPa | 2.54 mm | - | - | - |
| 1777231952 | 15° C | 65% | 1016.2 hPa | 2.54 mm | - | - | - |
| 1777230148 | 14.44° C | 75% | 1016.2 hPa | 2.54 mm | - | - | - |
| 1777226545 | 13.33° C | 86% | 1016.5 hPa | 2.54 mm | - | - | - |
| 1777224740 | 12.22° C | 81% | 1016.9 hPa | 2.54 mm | - | - | - |
| 1777222939 | 11.11° C | 91% | 1017.2 hPa | 2.54 mm | - | - | - |
| 1777219336 | 10° C | 97% | 1018.2 hPa | 2.54 mm | - | - | - |
| 1777215728 | 8.89° C | 99% | 1018.2 hPa | 2.54 mm | - | - | - |
| 1777213926 | 7.78° C | 99% | 1018.2 hPa | 2.54 mm | - | - | - |
| 1777210320 | 6.11° C | 99% | 1017.9 hPa | 2.54 mm | - | - | - |
| 1777208518 | 5.56° C | 99% | 1017.9 hPa | 2.54 mm | - | - | - |
| 1777206713 | 5.56° C | 99% | 1017.9 hPa | 2.54 mm | - | - | - |
| 1777201309 | 3.89° C | 99% | 1016.9 hPa | 2.54 mm | - | - | - |
| 1777199509 | 3.89° C | 99% | 1016.5 hPa | 2.54 mm | - | - | - |
| 1777197706 | 3.89° C | 99% | 1016.5 hPa | 2.54 mm | - | - | - |
| 1777195906 | 3.89° C | 99% | 1016.5 hPa | 2.54 mm | - | - | - |
| 1777192297 | 3.89° C | 98% | 1016.5 hPa | 2.54 mm | - | - | - |
| 1777190499 | 3.89° C | 98% | 1016.2 hPa | 2.29 mm | - | - | - |
| 1777186889 | 3.89° C | 98% | 1016.5 hPa | 1.78 mm | - | - | - |
| 1777183284 | 3.89° C | 98% | 1016.9 hPa | 1.52 mm | - | - | - |
| 1777179681 | 3.33° C | 97% | 1017.2 hPa | 1.52 mm | - | - | - |
* Rain latest 24 hours (hover to see other rain measurements)
** Current wind speed in m/s (hover to see current wind gust speed)